Location: Recife
(8.0585°S, 34.8848°W)
Time: 11:03:49
(UTC-03:00)

Altair - Pass Details

Date: 20 April 2026
Orbit: 1501 x 1682 km, 47.2° (Epoch: 20 May)

Event Time Altitude Azimuth Distance (km) Brightness Sun altitude
Rises 09:59:05 0° 263° (W) 4,901 9.9 62.1°
Reaches altitude 10° 10:05:28 10° 292° (WNW) 3,931 9.7 63.2°
Maximum altitude 10:08:33 12° 310° (NW) 3,798 9.7 63.7°
Drops below altitude 10° 10:11:39 10° 329° (NNW) 3,933 9.9 64.2°
Sets 10:18:08 0° 359° (N) 4,908 10.4 65.2°
